Ridgedale, MO

10:28 AM CST on February 23, 2017 (GMT -0600)
Branson

Weather History for KBBG - September, 2013

Change the Weather History Date:

Saturday, September 14, 2013

  Actual Average (KHRO) Record (KHRO)
Temperature  
Mean Temperature 64 °F -  
Max Temperature 77 °F 80 °F 101 °F (1939)
Min Temperature 51 °F 61 °F 32 °F (1902)
Degree Days  
Heating Degree Days 1    
Growing Degree Days 14 (Base 50)    
Moisture  
Dew Point 50 °F    
Average Humidity 66    
Maximum Humidity 94    
Minimum Humidity 36    
Precipitation  
Precipitation 0.00 in - - ()
Sea Level Pressure  
Sea Level Pressure 30.08 in    
Wind  
Wind Speed 3 mph (SE)    
Max Wind Speed 12 mph    
Max Gust Speed -    
Visibility 10 miles    
Events      
Averages and records for this station are not official NWS values.
T = Trace of Precipitation, MM = Missing Value Source: NWS Daily Summary

Daily Weather History Graph

Daily Weather History Graph

Search for Another Location

Airport or City:

Trip Planner

Search our weather history database for the weather conditions in past years. The results will help you decide how hot, cold, wet, or windy it might be!

Date:

Astronomy

Sep. 14, 2013 Rise Set
Actual Time 6:54 AM CDT 7:21 PM CDT
Civil Twilight 6:28 AM CDT 7:47 PM CDT
Nautical Twilight 5:58 AM CDT 8:17 PM CDT
Astronomical Twilight 5:27 AM CDT 8:48 PM CDT
Moon 3:57 PM CDT (9/14) 1:33 AM CDT (9/14)
Length of Visible Light 13h 18m
Length of Day
12h 26m
Waxing Gibbous, 72% of the Moon is Illuminated
Sep 14
Waxing Gibbous
Sep 19
Full
Sep 26
Last Quarter
Oct 4
New
Oct 11
First Quarter

Hourly Weather History & Observations

Time (CDT) Temp. Dew Point Humidity Pressure Visibility Wind Dir Wind Speed Gust Speed Precip Events Conditions
12:15 AM 62.6 °F 50.0 °F 63% 30.08 in 10.0 mi Calm Calm - N/A   Clear
12:35 AM 60.8 °F 50.0 °F 68% 30.08 in 10.0 mi Calm Calm - N/A   Clear
12:55 AM 60.8 °F 50.0 °F 68% 30.08 in 10.0 mi Calm Calm - N/A   Clear
1:15 AM 60.8 °F 50.0 °F 68% 30.08 in 10.0 mi East 6.9 mph - N/A   Clear
1:35 AM 59.0 °F 50.0 °F 72% 30.08 in 10.0 mi East 4.6 mph - N/A   Clear
1:55 AM 57.2 °F 51.8 °F 82% 30.08 in 10.0 mi ESE 3.5 mph - N/A   Clear
2:15 AM 57.2 °F 51.8 °F 82% 30.08 in 10.0 mi Calm Calm - N/A   Clear
2:35 AM 57.2 °F 51.8 °F 82% 30.08 in 10.0 mi Calm Calm - N/A   Clear
2:55 AM 57.2 °F 53.6 °F 88% 30.08 in 10.0 mi Calm Calm - N/A   Clear
3:15 AM 57.2 °F 53.6 °F 88% 30.08 in 10.0 mi Calm Calm - N/A   Clear
3:35 AM 57.2 °F 51.8 °F 82% 30.08 in 10.0 mi Calm Calm - N/A   Clear
3:55 AM 55.4 °F 51.8 °F 88% 30.08 in 10.0 mi Calm Calm - N/A   Clear
4:15 AM 55.4 °F 51.8 °F 88% 30.08 in 10.0 mi Calm Calm - N/A   Clear
4:35 AM 55.4 °F 50.0 °F 82% 30.09 in 10.0 mi Calm Calm - N/A   Clear
4:55 AM 55.4 °F 50.0 °F 82% 30.09 in 10.0 mi Calm Calm - N/A   Clear
5:15 AM 55.4 °F 50.0 °F 82% 30.09 in 10.0 mi Calm Calm - N/A   Clear
5:35 AM 55.4 °F 50.0 °F 82% 30.10 in 10.0 mi Calm Calm - N/A   Clear
5:55 AM 53.6 °F 50.0 °F 88% 30.10 in 10.0 mi Calm Calm - N/A   Clear
6:15 AM 53.6 °F 50.0 °F 88% 30.10 in 10.0 mi Calm Calm - N/A   Clear
6:35 AM 51.8 °F 50.0 °F 94% 30.10 in 10.0 mi Calm Calm - N/A   Clear
6:45 AM 53.6 °F 50.0 °F 88% 30.11 in 10.0 mi East 4.6 mph - N/A   Partly Cloudy
7:45 AM 55.4 °F 50.0 °F 82% 30.13 in 10.0 mi Calm Calm - N/A   Partly Cloudy
8:50 AM 59.0 °F 51.8 °F 77% 30.14 in 10.0 mi ESE 6.9 mph - N/A   Partly Cloudy
9:45 AM 64.4 °F 50.0 °F 59% 30.14 in 10.0 mi SSE 10.4 mph - N/A   Partly Cloudy
10:45 AM 66.2 °F 50.0 °F 56% 30.15 in 10.0 mi East 9.2 mph - N/A   Partly Cloudy
11:45 AM 69.8 °F 50.0 °F 49% 30.14 in 10.0 mi ESE 11.5 mph - N/A   Partly Cloudy
12:45 PM 71.6 °F 48.2 °F 43% 30.12 in 10.0 mi East 9.2 mph - N/A   Partly Cloudy
1:48 PM 73.4 °F 48.2 °F 41% 30.10 in 10.0 mi SE 11.5 mph - N/A   Scattered Clouds
2:49 PM 75.2 °F 48.2 °F 38% 30.08 in 10.0 mi SSE 9.2 mph - N/A   Scattered Clouds
3:47 PM 77.0 °F 48.2 °F 36% 30.06 in 10.0 mi SE 9.2 mph - N/A   Scattered Clouds
4:56 PM 77.0 °F 48.2 °F 36% 30.04 in 10.0 mi SE 6.9 mph - N/A   Scattered Clouds
5:51 PM 75.2 °F 46.4 °F 36% 30.04 in 10.0 mi SSE 5.8 mph - N/A   Mostly Cloudy
6:50 PM 71.6 °F 48.2 °F 43% 30.05 in 10.0 mi SE 5.8 mph - N/A   Mostly Cloudy
7:54 PM 68.0 °F 48.2 °F 49% 30.04 in 10.0 mi SE 6.9 mph - N/A   Mostly Cloudy
8:46 PM 64.4 °F 48.2 °F 56% 30.05 in 10.0 mi SE 5.8 mph - N/A   Mostly Cloudy
9:15 PM 66.2 °F 48.2 °F 52% 30.05 in 10.0 mi ESE 3.5 mph - N/A   Clear
9:35 PM 66.2 °F 48.2 °F 52% 30.05 in 10.0 mi SE 8.1 mph - N/A   Clear
9:55 PM 64.4 °F 50.0 °F 59% 30.06 in 10.0 mi SSE 8.1 mph - N/A   Clear
10:15 PM 64.4 °F 50.0 °F 59% 30.06 in 10.0 mi SE 9.2 mph - N/A   Clear
10:35 PM 64.4 °F 50.0 °F 59% 30.06 in 10.0 mi SE 9.2 mph - N/A   Clear
10:55 PM 64.4 °F 50.0 °F 59% 30.06 in 10.0 mi SSE 11.5 mph - N/A   Clear
11:15 PM 64.4 °F 48.2 °F 56% 30.06 in 10.0 mi SE 10.4 mph - N/A   Clear
11:35 PM 62.6 °F 48.2 °F 59% 30.06 in 10.0 mi SE 11.5 mph - N/A   Clear
11:55 PM 62.6 °F 48.2 °F 59% 30.06 in 10.0 mi SE 11.5 mph - N/A   Clear